Estación de Casablanca
Ultimos registro cada 15 minutos 42
| N° | Estación | Fecha / Hora | Temperatura | Humedad | Lluvia | Velocidad | Dirección | Radiación | Presion |
| 42 | Casablanca | 07-05-2026 10:15 | 8,6 | 100 | 0 | 0 | 124 | 379,4 | 995,8 |
| 41 | Casablanca | 07-05-2026 10:00 | 8,5 | 100 | 0 | 0 | 124 | 250,6 | 995,7 |
| 40 | Casablanca | 07-05-2026 09:45 | 7,8 | 100 | 0 | 0 | 145 | 185,6 | 995,9 |
| 39 | Casablanca | 07-05-2026 09:30 | 7,7 | 100 | 0 | 0 | 270 | 194,4 | 995,8 |
| 38 | Casablanca | 07-05-2026 09:15 | 6,7 | 100 | 0 | 0 | 270 | 160,6 | 995,8 |
| 37 | Casablanca | 07-05-2026 09:00 | 6,1 | 100 | 0 | 0 | 270 | 130,6 | 995,8 |
| 36 | Casablanca | 07-05-2026 08:45 | 5,9 | 100 | 0 | 0 | 270 | 91,9 | 995,7 |
| 35 | Casablanca | 07-05-2026 08:30 | 5,2 | 100 | 0 | 0 | 270 | 84,4 | 995,4 |
| 34 | Casablanca | 07-05-2026 08:15 | 4,5 | 100 | 0 | 0 | 270 | 50,6 | 995,5 |
| 33 | Casablanca | 07-05-2026 08:00 | 3,8 | 100 | 0 | 0 | 270 | 26,9 | 995,2 |
| 32 | Casablanca | 07-05-2026 07:45 | 2,8 | 100 | 0 | 0 | 270 | 11,9 | 995 |
| 31 | Casablanca | 07-05-2026 07:30 | 2,6 | 100 | 0 | 0 | 270 | 3,1 | 995 |
| 30 | Casablanca | 07-05-2026 07:15 | 3,1 | 100 | 0 | 0 | 270 | 0,6 | 995,1 |
| 29 | Casablanca | 07-05-2026 07:00 | 3,4 | 100 | 0 | 0 | 270 | 0,6 | 995 |
| 28 | Casablanca | 07-05-2026 06:45 | 2,8 | 100 | 0 | 0 | 270 | 0,6 | 994,8 |
| 27 | Casablanca | 07-05-2026 06:30 | 3,3 | 100 | 0 | 0 | 270 | 0,6 | 994,7 |
| 26 | Casablanca | 07-05-2026 06:15 | 3,9 | 100 | 0 | 0 | 270 | 0,6 | 994,6 |
| 25 | Casablanca | 07-05-2026 06:00 | 4,9 | 100 | 0 | 0 | 270 | 0,6 | 994,5 |
| 24 | Casablanca | 07-05-2026 05:45 | 4,8 | 100 | 0 | 0 | 270 | 0,6 | 994,3 |
| 23 | Casablanca | 07-05-2026 05:30 | 5,6 | 100 | 0 | 0 | 270 | 0,6 | 994,2 |
| 22 | Casablanca | 07-05-2026 05:15 | 5,8 | 100 | 0 | 0 | 270 | 0,6 | 994 |
| 21 | Casablanca | 07-05-2026 05:00 | 5,7 | 100 | 0 | 0 | 270 | 0,6 | 993,9 |
| 20 | Casablanca | 07-05-2026 04:45 | 6 | 100 | 0 | 0 | 270 | 0,6 | 993,7 |
| 19 | Casablanca | 07-05-2026 04:30 | 6,1 | 99,8 | 0 | 0 | 270 | 0,6 | 993,9 |
| 18 | Casablanca | 07-05-2026 04:15 | 7,1 | 99,8 | 0,2 | 0 | 270 | 0,6 | 993,9 |
| 17 | Casablanca | 07-05-2026 04:00 | 7,3 | 99,7 | 0 | 0 | 268 | 0,6 | 993,7 |
| 16 | Casablanca | 07-05-2026 03:45 | 7,5 | 99,4 | 0 | 0 | 270 | 0,6 | 994 |
| 15 | Casablanca | 07-05-2026 03:30 | 7,6 | 99,6 | 0 | 0 | 256 | 0,6 | 994 |
| 14 | Casablanca | 07-05-2026 03:15 | 7,4 | 99,7 | 0 | 0 | 230 | 0,6 | 993,8 |
| 13 | Casablanca | 07-05-2026 03:00 | 7,2 | 98,6 | 0 | 0 | 233 | 0,6 | 993,9 |
| 12 | Casablanca | 07-05-2026 02:45 | 8 | 99,3 | 0 | 0 | 236 | 0,6 | 993,9 |
| 11 | Casablanca | 07-05-2026 02:30 | 7,1 | 98,7 | 0 | 0 | 237 | 0,6 | 993,8 |
| 10 | Casablanca | 07-05-2026 02:15 | 7,8 | 98,9 | 0 | 0 | 237 | 0,6 | 993,7 |
| 9 | Casablanca | 07-05-2026 02:00 | 8 | 97,6 | 0 | 0 | 237 | 0,6 | 993,9 |
| 8 | Casablanca | 07-05-2026 01:45 | 8,5 | 96,3 | 0 | 0 | 213 | 0,6 | 993,7 |
| 7 | Casablanca | 07-05-2026 01:30 | 9,2 | 96,6 | 0 | 0 | 215 | 0,6 | 993,3 |
| 6 | Casablanca | 07-05-2026 01:15 | 9,2 | 97,4 | 0 | 0 | 233 | 0,6 | 993,2 |
| 5 | Casablanca | 07-05-2026 01:00 | 8,8 | 97,4 | 0 | 0 | 343 | 0,6 | 993,4 |
| 4 | Casablanca | 07-05-2026 00:45 | 9,2 | 96,1 | 0 | 0 | 312 | 0,6 | 993,3 |
| 3 | Casablanca | 07-05-2026 00:30 | 9,7 | 95,5 | 0 | 0 | 239 | 0,6 | 993,3 |
| 2 | Casablanca | 07-05-2026 00:15 | 9,9 | 95,8 | 0 | 0,5 | 237 | 0,6 | 993,4 |
| 1 | Casablanca | 07-05-2026 00:00 | 9,9 | 96,3 | 0 | 0,5 | 234 | 0,6 | 993,5 |